Regional Weather Roundup
Issued by NWS San Diego, CA

Home | Current Version | Previous Version | Text Only | Print | Product List | Glossary On
Versions: 1 2 3 4 5 6 7 8 9 10 11 12 13 14 15 16 17 18 19 20 21 22 23 24 25 26 27 28 29 30 31 32 33 34 35 36 37 38 39 40 41 42 43 44 45 46 47 48 49 50
000
ASUS46 KSGX 251111
RWRSGX

SAN DIEGO HOURLY WEATHER ROUNDUP
NATIONAL WEATHER SERVICE SAN DIEGO CA
400 AM PDT THU MAY 25 2017

NOTE: "FAIR" INDICATES FEW OR NO CLOUDS BELOW 12,000 FEET WITH NO
SIGNIFICANT WEATHER AND/OR OBSTRUCTIONS TO VISIBILITY.

CAZ042-043-060-061-PZZ750-775-251200-

GREATER SAN DIEGO AREA

CITY           SKY/WX    TMP DP  RH WIND       PRES   REMARKS
SAN DIEGO AP   CLOUDY    62  49  62 SW3       29.87S
NATIONAL CITY    N/A     61  52  71 CALM      29.86S
CHULA VISTA      N/A     60  52  75 CALM      29.78S
IMPERIAL BEACH CLOUDY    60  50  69 CALM      29.86F
BROWN FIELD    CLOUDY    58  49  72 SW7       29.85F
MIRAMAR MCAS   CLOUDY    63  49  60 CALM      29.85F
MONTGOMERY FLD CLOUDY    60  48  64 CALM      29.85F

$$

NORTH SAN DIEGO COUNTY

CITY           SKY/WX    TMP DP  RH WIND       PRES   REMARKS
CAMP PENDLETON CLOUDY    60  52  74 W5        29.85S
OCEANSIDE AP   CLOUDY    60  51  72 W8        29.85S
OCEANSIDE HBR    N/A     60  52  75 CALM      29.88S
VISTA            N/A     58  52  78 CALM      29.83S
CARLSBAD       CLOUDY    59  50  72 SW7       29.84F
DEL MAR          N/A     59  52  78 CALM      29.88S
LA JOLLA SCRIP   N/A     59  53  80 W2        29.85F
FALLBROOK        N/A     58  54  88 CALM        N/A
ESCONDIDO        N/A     58  51  76 CALM      29.86S
SAN MARCOS       N/A     57  50  77 CALM      29.86S
POWAY            N/A     59  51  76 CALM      29.86S

$$

EAST SAN DIEGO COUNTY

CITY           SKY/WX    TMP DP  RH WIND       PRES   REMARKS
RAMONA         CLOUDY    56  52  86 W7        29.84F
SANTEE LAKES     N/A     58  51  77 CALM      29.84F
LA MESA          N/A     57  50  76 CALM      29.78F
JAMUL            N/A     56  51  84 CALM      29.84F
DESCANSO N       N/A     40  31  67 E3        29.72S
MT. LAGUNA OBS   N/A     52  -7   8 W9        29.53F
CAMPO            N/A     42  41  96 NE3       29.83R

$$

ORANGE COUNTY AND THE LOS ANGELES BASIN

CITY           SKY/WX    TMP DP  RH WIND       PRES   REMARKS
JOHN WAYNE AP  CLOUDY    61  50  67 W3        29.84F
LAKE FOREST FR   N/A     56  48  72 CALM      29.72S
HUNTINGTON BCH   N/A     60  53  78 W1        29.86S
LOS ALAMITOS   CLOUDY    60  49  69 CALM      29.84S
FULLERTON      CLOUDY    61  50  67 CALM      29.84S
LONG BEACH     CLOUDY    61  47  59 S3        29.85S
L.A. AP        CLOUDY    59  51  75 SW6       29.85S
L.A. DOWNTOWN  CLOUDY    61  52  72 CALM      29.84

$$

THE INLAND EMPIRE

CITY           SKY/WX    TMP DP  RH WIND       PRES   REMARKS
CORONA         CLOUDY    59  51  75 CALM      29.85S
CHINO          CLOUDY    59  52  77 W6        29.85F
ONTARIO        CLOUDY    57  53  86 SW6       29.84F
SAN BERNARDINO CLOUDY    60  52  75 W5        29.84S
RIVERSIDE AP   CLOUDY    57  54  89 W6        29.84F
MORENO VALLEY    N/A     56  55  95 CALM      27.95F
MARCH ARB      CLOUDY    55  53  94 SE7       29.84S
HORSETHIEF CYN   N/A     55  48  76 S3        29.82S
PERRIS           N/A     53  52  95 S3        29.86S
HEMET EAST       N/A     52  46  79 CALM      29.85S
FRENCH VALLEY  CLOUDY    55  50  82 SW3       29.85F
TEMECULA         N/A     57  54  89 SW1       29.90S

$$

SAN BERNARDINO AND RIVERSIDE COUNTY MOUNTAINS

CITY           SKY/WX    TMP DP  RH WIND       PRES   REMARKS
BIG BEAR AP    CLEAR     46  10  23 W5        29.94F
PINE COVE        N/A     54  -9   7 N3        29.65S

$$

SOUTHERN DESERT INCLUDING THE COACHELLA VALLEY

CITY           SKY/WX    TMP DP  RH WIND       PRES   REMARKS
PALM SPRINGS   CLEAR     71  40  32 CALM      29.60S
PALM DESERT      N/A     70  46  42 CALM      30.01S
THERMAL        CLEAR     77  30  17 NW10G21   29.55S
BLYTHE         PTCLDY    75  35  23 VRB5      29.55S
IMPERIAL AP    LGT RAIN  77  23  13 W9        29.58R
EL CENTRO NAS  LGT RAIN  80  12   7 W28G36    29.59S
YUMA AZ        MOCLDY    75  24  15 W3        29.59

$$

UPPER DESERT

CITY           SKY/WX    TMP DP  RH WIND       PRES   REMARKS
VICTORVILLE AP CLEAR     57  41  54 S9        29.76S
HESPERIA         N/A     56  40  55 W8        29.74F
PALMDALE       CLEAR     61  30  31 S22       29.75S
LANCASTER      CLEAR     59  33  37 SW17      29.74F
EDWARDS AFB    CLEAR     62  26  25 SW17      29.70S
DAGGETT        CLEAR     72  25  17 W22G33    29.64F
29 PALMS N     CLEAR     74   7   7 W14       29.71S
NEEDLES        CLEAR     82  34  17 SW8       29.54R

$$

REGIONAL REPORTS

CITY           SKY/WX    TMP DP  RH WIND       PRES   REMARKS
SANTA BARBARA  CLOUDY    56  53  90 E5        29.84S
SANDBERG       CLEAR     51  40  65 S12       29.86S
LAS VEGAS NV   PTCLDY    80  27  14 S14G20    29.51R
PHOENIX AZ     MOCLDY    87  26  11 N5        29.60R
TIJUANA        CLOUDY    57  46  67 W3        29.88S
ENSENADA NW      N/A     60  32  35 W3        29.83S

$$

OFFSHORE ISLANDS

CITY           SKY/WX    TMP DP  RH WIND       PRES   REMARKS
CATALINA ARPT  CLOUDY    52  50  93 VRB3      29.85F
SAN NICOLAS IS CLOUDY   N/A N/A N/A NW5       29.85S

$$

MARINE AND OFFSHORE BUOY REPORTS

STATION/POSITION SKY/WX   TEMP    WIND        PRES    VSBY  SWELL
                          AIR SEA DIR/SP/G                  HT/PER/DIR
                          (F)     (DEG/KT/KT) (MB)    (MI)  (FT/S/D)
TANNER BANKS               60 60  290/  8/ 12 1010.9S         3/290/11
SAN NICOLAS IS.               59                N/A           5/280/13
SO. S. ROSA ISLA           56 57  220/  2/  4 1010.5S         5/280/12
W. S. BARBARA CH           56 55   CALM  /  2 1010.1F         5/290/13
M. S. BARBARA CH                  170/  2/  4 1011.0F
S. MONICA BASIN            59 63  220/  4/  6 1010.5F         3/220/14
S PEDRO CHANNEL               63                N/A           2/270/13
CMP PENDLETON NS              62                N/A           2/220/14
OCEANSIDE OFFSHR              64                N/A           2/210/14
TORREY PINES OTR              65                N/A           2/250/13
SAN DIEGO BAY                 68              1011.1F
POINT LOMA SOUTH              65                N/A           3/220/13

$$





USA.gov is the U.S. government's official web portal to all federal, state and local government web resources and services.